XML Sitemap

This is a XML Sitemap which is supposed to be processed by search engines which follow the XML Sitemap standard like Ask.com, Bing, Google and Yahoo.
It was generated using the WordPress content management system and the Google Sitemap Generator Plugin by Arne Brachhold.
You can find more information about XML sitemaps on sitemaps.org and Google's list of sitemap programs.

URLPriorityChange frequencyLast modified (GMT)
https://100frames.com/15-telugu-calendar-2019-january/50%Daily2019-03-10 15:55
https://100frames.com/30-bethel-university-calendar/50%Daily2019-03-10 15:53
https://100frames.com/31-rps-calendar-2019-2020/50%Daily2019-03-10 15:50
https://100frames.com/34-july-2019-calendar-printable-small/50%Daily2019-03-10 15:50
https://100frames.com/30-write-in-calendar-2019/50%Daily2019-03-10 15:48
https://100frames.com/23-24-hour-calendar-printable-free/50%Daily2019-03-10 15:46
https://100frames.com/31-printable-monthly-calendar-for-august-2019/50%Daily2019-03-10 15:45
https://100frames.com/34-july-2019-calendar-print-out/50%Daily2019-03-10 15:44
https://100frames.com/31-download-monthly-calendar/50%Daily2019-03-10 15:42
https://100frames.com/35-kids-printable-christmas-advent-calendar/50%Daily2019-03-10 15:41
https://100frames.com/32-september-printable-calendar/50%Daily2019-03-10 15:39
https://100frames.com/32-weekly-calendar-homeschool-free-printable/50%Daily2019-03-10 15:37
https://100frames.com/35-december-206-calendar/50%Daily2019-03-10 15:35
https://100frames.com/31-december-calendar-2019-with-holidays-printable/50%Daily2019-03-10 15:35
https://100frames.com/30-nyc-events-calendar/50%Daily2019-03-10 15:33
https://100frames.com/32-printable-calendar-by-month-november/50%Daily2019-03-10 15:31
https://100frames.com/33-free-september-2019-calendar/50%Daily2019-03-10 15:31
https://100frames.com/33-blank-calendar-pages/50%Daily2019-03-10 15:30
https://100frames.com/31-creating-a-printable-weekly-appointment-calendar/50%Daily2019-03-10 15:28
https://100frames.com/33-2019-calendar-in-excel/50%Daily2019-03-10 15:27
https://100frames.com/35-august-calendar-pdf/50%Daily2019-03-10 15:26
https://100frames.com/30-july-016-calendar/50%Daily2019-03-10 15:26
https://100frames.com/23-may-2019-printable-calendar-monday-start/50%Daily2019-03-10 15:23
https://100frames.com/31-august-2019-calendar-canada/50%Daily2019-03-10 15:21
https://100frames.com/33-2019-calendar-philippines-with-holidays-printable/50%Daily2019-03-10 15:21
https://100frames.com/32-january-printable-calendar-2019-cute/50%Daily2019-03-10 15:20
https://100frames.com/30-calendar-2019-with-holidays-printable/50%Daily2019-03-10 15:18
https://100frames.com/30-gujarati-printable-calendar-2073/50%Daily2019-03-10 15:16
https://100frames.com/33-stardew-valley-printable-calendar/50%Daily2019-03-10 15:16
https://100frames.com/34-2019-yearly-calendar-printable-australia/50%Daily2019-03-10 15:16
https://100frames.com/30-fire-shift-calendar-2019/50%Daily2019-03-10 15:13
https://100frames.com/31-march-2019-printable-calendar-waterproof/50%Daily2019-03-10 15:11
https://100frames.com/31-printable-calendar-of-august-2019-april-2019/50%Daily2019-03-10 15:09
https://100frames.com/31-printable-typable-calendar/50%Daily2019-03-10 15:07
https://100frames.com/34-printable-june-calendar-2019-cute/50%Daily2019-03-10 15:05
https://100frames.com/35-free-august-2019-calendar-template/50%Daily2019-03-10 15:05
https://100frames.com/33-financial-calendar-2019-printable-us/50%Daily2019-03-10 15:02
https://100frames.com/34-printable-perpetual-calendar-software/50%Daily2019-03-10 15:00
https://100frames.com/32-miami-dade-county-public-schools-calendar/50%Daily2019-03-10 15:00
https://100frames.com/32-july-2019-calendar-printable-a4/50%Daily2019-03-10 14:56
https://100frames.com/32-march-2019-calendar-printable-a4/50%Daily2019-03-10 14:55
https://100frames.com/32-calendar-february-2019-blank/50%Daily2019-03-10 14:52
https://100frames.com/35-2019-calendar-for-november-and-december/50%Daily2019-03-10 14:51
https://100frames.com/32-blank-printable-calendar-2019-16/50%Daily2019-03-10 14:50
https://100frames.com/32-full-year-calendar-at-a-glance-2019-printable/50%Daily2019-03-10 14:47
https://100frames.com/34-uk-monthly-printable/50%Daily2019-03-10 14:45
https://100frames.com/30-is-2019-a-leap-year/50%Daily2019-03-10 14:45
https://100frames.com/33-printable-vacation-calendar/50%Daily2019-03-10 14:42
https://100frames.com/33-chinese-fertility-calendar/50%Daily2019-03-10 14:40
https://100frames.com/30-printable-july-monthly-calendar-2019/50%Daily2019-03-10 14:40
https://100frames.com/24-blank-yearly-printable-calendar/50%Daily2019-03-10 14:37
https://100frames.com/32-free-blank-printable-calendars-2019/50%Daily2019-03-10 14:35
https://100frames.com/33-free-printable-2019-homeschool-calendar/50%Daily2019-03-10 14:35
https://100frames.com/34-printable-dinner-menu-calendar/50%Daily2019-03-10 14:33
https://100frames.com/35-december-2019-calendar-page/50%Daily2019-03-10 14:31
https://100frames.com/27-calendar-for-2019-excel-printable-downloadable/50%Daily2019-03-10 14:31
https://100frames.com/35-may-printable-calendar-birthstone/50%Daily2019-03-10 14:30
https://100frames.com/32-calendar-control-in-asp-net/50%Daily2019-03-10 14:28
https://100frames.com/33-rwu-academic-calendar-2019/50%Daily2019-03-10 14:27
https://100frames.com/31-february-2019-printable-calendar-monday-start-2/50%Daily2019-03-10 14:26
https://100frames.com/35-printer-friendly-calendar/50%Daily2019-03-10 14:25
https://100frames.com/31-calendar-printable-with-lines/50%Daily2019-03-10 14:23
https://100frames.com/33-calendar-ortodox-2019/50%Daily2019-03-10 14:21
https://100frames.com/32-my-free-printable-calendar/50%Daily2019-03-10 14:20
https://100frames.com/31-march-calendar/50%Daily2019-03-10 14:19
https://100frames.com/30-adult-advent-calendar-ideas/50%Daily2019-03-10 14:17
https://100frames.com/24-printable-november-2019-appointment-calendar/50%Daily2019-03-10 14:15
https://100frames.com/21-2019-editable-calendar/50%Daily2019-03-10 14:15
https://100frames.com/28-jewish-holidays-2019-calendar/50%Daily2019-03-10 14:13
https://100frames.com/34-google-calendar-ios-sync/50%Daily2019-03-10 14:11
https://100frames.com/35-printable-calendar-2019-disney-january/50%Daily2019-03-10 14:11
https://100frames.com/31-4-by-3-inch-2019-individual-month-printable-calendars/50%Daily2019-03-10 14:09
https://100frames.com/31-calendar-2019-february-march/50%Daily2019-03-10 14:06
https://100frames.com/34-printable-2019-calendar-3-months-per-page/50%Daily2019-03-10 14:06
https://100frames.com/32-printable-november-calendar-page/50%Daily2019-03-10 14:04
https://100frames.com/35-how-to-make-printable-calendar-word/50%Daily2019-03-10 14:01
https://100frames.com/33-2019-february-calendar-printable-calendar-towns/50%Daily2019-03-10 14:00
https://100frames.com/31-advent-calendar-verses-printable/50%Daily2019-03-10 13:59
https://100frames.com/30-free-printable-color-calendars-for-2019-school-year/50%Daily2019-03-10 13:57
https://100frames.com/33-calendar-november-2019-template/50%Daily2019-03-10 13:56
https://100frames.com/33-printable-january-2019-calendar-with-notes/50%Daily2019-03-10 13:55
https://100frames.com/35-school-calendar-2019-17-with-us-holidays-printable-free/50%Daily2019-03-10 13:53
https://100frames.com/32-2009-calendar-december-printable/50%Daily2019-03-10 13:50
https://100frames.com/32-blank-june-monthly-calendar-2019/50%Daily2019-03-10 13:50
https://100frames.com/35-weekly-to-do-list-template/50%Daily2019-03-10 13:47
https://100frames.com/23-dltk-printable-calendar/50%Daily2019-03-10 13:45
https://100frames.com/33-2019-printable-calendar-designed-free/50%Daily2019-03-10 13:45
https://100frames.com/25-printable-calendars-with-christian-holidays-2019/50%Daily2019-03-10 13:44
https://100frames.com/32-november-2019-lunar-calendar/50%Daily2019-03-10 13:41
https://100frames.com/32-2019-yearly-calendar-template/50%Daily2019-03-10 13:41
https://100frames.com/33-create-countdown-calendar-printable/50%Daily2019-03-10 13:38
https://100frames.com/35-free-printable-cute-january-2019-calendar/50%Daily2019-03-10 13:35
https://100frames.com/35-free-printable-calendar-2019-january/50%Daily2019-03-10 13:35
https://100frames.com/24-blank-advent-calendar-printable/50%Daily2019-03-10 13:33
https://100frames.com/24-2019-calendar-printable-may/50%Daily2019-03-10 13:31
https://100frames.com/33-free-pocket-printable-calendar/50%Daily2019-03-10 13:30
https://100frames.com/34-yearly-printable-calendars/50%Daily2019-03-10 13:29
https://100frames.com/34-november-2019-free-calendar/50%Daily2019-03-10 13:26
https://100frames.com/30-free-printable-blank-year-calendar/50%Daily2019-03-10 13:25
https://100frames.com/30-calendar-custom-printable/50%Daily2019-03-10 13:23
https://100frames.com/33-after-film-online-subtitrat-anna-todd/50%Daily2019-03-10 13:21
https://100frames.com/31-desk-pad-calendars/50%Daily2019-03-10 13:21
https://100frames.com/34-february-2019-calendar-printable-for-kids/50%Daily2019-03-10 13:20
https://100frames.com/31-best-of-15-examples-printable-calendar-with-lines/50%Daily2019-03-10 13:18
https://100frames.com/32-august-2019-mom-calendar-printable/50%Daily2019-03-10 13:16
https://100frames.com/33-printable-calendar-free-december-2019/50%Daily2019-03-10 13:15
https://100frames.com/13-usps-pay-calendar-2019/50%Daily2019-03-10 13:15
https://100frames.com/33-cute-free-printable-weekly-calendars/50%Daily2019-03-10 13:13
https://100frames.com/30-colgate-university-calendar/50%Daily2019-03-10 13:11
https://100frames.com/34-december-2019-calendar-printable-for-3-month-calendar-template/50%Daily2019-03-10 13:11
https://100frames.com/30-add-holidays-to-samsung-s7-calendar/50%Daily2019-03-10 13:09
https://100frames.com/30-sept-calendar-printable/50%Daily2019-03-10 13:06
https://100frames.com/31-tamil-calendar-2019-usa/50%Daily2019-03-10 13:07
https://100frames.com/34-free-printable-personal-size-calendar/50%Daily2019-03-10 13:02
https://100frames.com/33-the-calendar-for-2019/50%Daily2019-03-10 13:01
https://100frames.com/24-free-printable-august-calendar/50%Daily2019-03-10 12:59
https://100frames.com/35-dia-de-muertos-2019/50%Daily2019-03-10 12:57
https://100frames.com/30-calendar-canada-2019-printable/50%Daily2019-03-10 12:56
https://100frames.com/34-government-pay-calendar-2019/50%Daily2019-03-10 12:55
https://100frames.com/34-confessions-of-a-homeschool-calendar-printables/50%Daily2019-03-10 12:51
https://100frames.com/32-free-printable-calendar-2019-no-holidays/50%Daily2019-03-10 12:51
https://100frames.com/31-2019-december-calendar-template/50%Daily2019-03-10 12:49
https://100frames.com/32-calendar-august-2019-pdf/50%Daily2019-03-10 12:47
https://100frames.com/32-cute-black-an-white-novembre-printable-calendars/50%Daily2019-03-10 12:45
https://100frames.com/32-pbc-school-calendar/50%Daily2019-03-10 12:44
https://100frames.com/33-big-printable-2019-calendar/50%Daily2019-03-10 12:41
https://100frames.com/34-attendance-calendar-for-academic-year-free-printable/50%Daily2019-03-10 12:41
https://100frames.com/34-baby-calendar-due-date/50%Daily2019-03-10 12:39
https://100frames.com/30-blank-printable-youth-group-calendar/50%Daily2019-03-10 12:37
https://100frames.com/19-printable-calendar-with-weeks-numbered/50%Daily2019-03-10 12:35
https://100frames.com/32-printable-december-2019-calendar-uk/50%Daily2019-03-10 12:35
https://100frames.com/25-engagement-calendars-2019/50%Daily2019-03-10 12:32
https://100frames.com/hello-world/100%Daily2019-03-06 14:33
https://100frames.com/35-pre-k-calendar-printables/50%Daily2019-03-10 12:30
https://100frames.com/35-february-2019-calendar-printable-vertical/50%Daily2019-03-10 12:30
https://100frames.com/30-free-printable-calendar-net-january-2019/50%Daily2019-03-10 12:27
https://100frames.com/32-march-2019-calendar-printable-editable/50%Daily2019-03-10 12:25
https://100frames.com/35-free-printable-calendar-numbers-preschool/50%Daily2019-03-10 12:24
https://100frames.com/22-printable-calendar-january-to-may-2019/50%Daily2019-03-10 12:22
https://100frames.com/33-three-month-calendar-free-printable-with-word/50%Daily2019-03-10 12:20
https://100frames.com/32-kindergarten-calendar-time-printables/50%Daily2019-03-10 12:20
https://100frames.com/31-black-and-white-calendar-printable/50%Daily2019-03-10 12:18
https://100frames.com/34-online-calendar-creator-printable/50%Daily2019-03-10 12:15
https://100frames.com/31-printable-november-calendar-2019-with-holidays/50%Daily2019-03-10 12:16
https://100frames.com/30-print-2019-monthly-calendar/50%Daily2019-03-10 12:13
https://100frames.com/34-printable-march-2019-calendar-vertex/50%Daily2019-03-10 12:11
https://100frames.com/31-blank-printable-calendar-2019-march/50%Daily2019-03-10 12:11
https://100frames.com/34-guess-the-babys-birthday-calendar-free-printable-pooh/50%Daily2019-03-10 12:08
https://100frames.com/31-free-create-a-calendar-printable/50%Daily2019-03-10 12:06
https://100frames.com/26-calendar-2019-printable-for-november/50%Daily2019-03-10 12:05
https://100frames.com/21-october-and-november-calendar/50%Daily2019-03-10 12:04
https://100frames.com/31-printable-2019-calendar-with-holidays-and-moon-phases/50%Daily2019-03-10 12:02
https://100frames.com/30-2019-calendar-uk/50%Daily2019-03-10 12:01
https://100frames.com/35-free-custom-calendar-printable/50%Daily2019-03-10 11:59
https://100frames.com/30-november-2019-running-calendar-printable/50%Daily2019-03-10 11:57
https://100frames.com/33-1016-calendar-printable/50%Daily2019-03-10 11:56
https://100frames.com/33-april-may-june-2019-calendar/50%Daily2019-03-10 11:55
https://100frames.com/32-free-weekly-printable-calendar-november-2019/50%Daily2019-03-10 11:52
https://100frames.com/35-jewish-holidays-in-sept/50%Daily2019-03-10 11:52
https://100frames.com/31-printable-april-month-calendar-2019/50%Daily2019-03-10 11:49
https://100frames.com/32-palm-beach-state-college-calendar/50%Daily2019-03-10 11:47
https://100frames.com/34-canon-mcmillan-printable-district-calendar/50%Daily2019-03-10 11:45